Location: Unspecified
(0.0000°N, 0.0000°E)
Time: 20:36:56
(UTC+00:00)

Tiangong 2 - Pass Details

Date: 10 December 2017
Orbit: 387 x 389 km, 42.8° (Epoch: 18 December)

Event Time Altitude Azimuth Distance (km) Brightness Sun altitude
Rises 19:15:58 0° 195° (SSW) 2,261 5.5 -19.0°
Reaches altitude 10° 19:18:57 10° 164° (SSE) 1,405 4.0 -19.7°
Enters shadow 19:19:27 11° 155° (SSE) 1,324 3.8 -19.8°
